www.pogodaiklimat.ru

Погода и климат >> Архив погоды >> Греция >> Хрисополи


ПОГОДА в Хрисополи

  • Прогноз погоды в Хрисополи
  • Монитор погоды в Хрисополи

АРХИВ ПОГОДЫ в Хрисополи

Время (UTC), дата Ветер
(напр.,м/с)
 
Видим.   Явления Облачность Т
(С)
Тd
(С)
f
(%)
Тe
(С)
Тes
(С)
Комфортность P
(гПа)
Po
(гПа)
Тmin
(С)
Tmax
(С)
R
(мм)
R24
(мм)
S
(см)
03 12.09 СВ 2
{3}
10 км 4/1 900 м
[Cu hum Ci fib]
+19.4 +12.7 65 +22 +22 комфорт 1019.4 1018.7
06 12.09 нст 2
{3}
10 км 6/1 900 м
[Cu hum Ac und Ci fib]
+20.0 +13.0 64 +23 +24 комфорт 1020.3 1019.6 +19.4 255
09 12.09 В 3
{6}
10 км 4/1 900 м
[Cu hum Ac und Ci fib]
+27.6 +10.8 35 +28 +36 жарко 1020.6 1020.0
12 12.09 Ю 7
{10}
10 км 4/1 900 м
[Cu hum Ac und Ci fib]
+28.2 +11.7 36 +29 +32 жарко 1019.9 1019.4
15 12.09 СВ 6
{9}
10 км 4/1 600 м
[Cu hum Ac trans Ci fib]
+29.2 +8.7 28 +29 +29 жарко 1018.6 1018.0
18 12.09 нст 1
{6}
10 км 5/3 900 м
[Cu hum Ac trans Ci fib]
+23.6 +16.1 63 +27 +27 жарко 1020.0 1019.4 +29.2
03 13.09 СВ 2
{4}
10 км 4/1 600 м
[Cu hum Ac trans Ci fib]
+20.4 +11.0 55 +23 +23 комфорт 1020.2 1019.5
06 13.09 СВ 2
{3}
10 км 6/1 750 м
[Cu hum Ac trans Ci fib]
+21.2 +10.2 49 +23 +25 комфорт 1020.6 1019.9 +20.0 270
09 13.09 СВ 10
{19}
10 км 5/1 600 м
[Cu hum Ac trans Ci fib]
+27.8 +5.1 23 +27 +27 жарко 1021.0 1020.5
12 13.09 СВ 9
{15}
10 км 4/1 600 м
[Cu hum Ac trans Ci fib]
+30.0 +5.5 21 +28 +29 жарко 1019.8 1019.3
15 13.09 СВ 6
{14}
10 км 1/1 600 м
[Cu hum]
+29.2 +6.5 24 +28 +29 жарко 1019.4 1018.9
18 13.09 С 3
{11}
10 км 3/1 600 м
[Cu hum Ac trans]
+23.6 +8.8 39 +24 +24 комфорт 1020.5 1019.8 +30.0
03 14.09 СВ 2
{3}
10 км ясно +16.0 +8.2 60 +16 +16 1021.1 1020.5
06 14.09 нст 2
{4}
10 км ясно +19.0 +10.5 58 +21 +23 комфорт 1021.6 1021.0 +15.0 255
09 14.09 З 3
{6}
10 км ясно +28.4 +7.9 28 +28 +39 жарко 1021.5 1021.0
12 14.09 СВ 6
{12}
10 км ясно +32.2 +5.9 19 +30 +35 жарко 1019.6 1019.1
15 14.09 З 3
{12}
10 км ясно +32.4 +11.4 28 +32 +34 жарко 1018.3 1017.8
18 14.09 штиль 0
{7}
10 км ясно +24.0 +17.6 67 +28 +28 душно 1019.8 1019.1 +33.0
03 15.09 В 2
{4}
10 км ясно +19.6 +9.5 52 +21 +21 комфорт 1022.6 1021.9
06 15.09 СВ 3
{5}
10 км 1/0 2000 м
[Ac lent]
+22.0 +11.3 51 +24 +26 комфорт 1023.4 1022.7 +19.6 280
09 15.09 СВ 5
{8}
10 км 1/1 600 м
[Cu hum]
+28.0 +11.9 37 +29 +34 жарко 1023.1 1022.6
12 15.09 ЮВ 4
{11}
10 км 8/1 900 м
[Cu hum Ac und]
+27.6 +14.0 43 +30 +33 жарко 1022.3 1021.8
15 15.09 ЮЗ 2
{7}
10 км 5/1 900 м
[Cu hum Ac und]
+28.6 +13.6 40 +30 +31 жарко 1020.7 1020.2
18 15.09 штиль 0
{3}
10 км 3/1 600 м
[Cu hum Ac trans]
+23.2 +19.5 80 +30 +30 очень
душно
1020.5 1019.8 +28.6
03 16.09 нст 2
{3}
10 км ясно +16.8 +14.0 84 +17 +17 1019.3 1018.6
06 16.09 СВ 2
{3}
10 км ясно +19.0 +15.3 79 +21 +24 комфорт 1019.1 1018.5 +16.0 265
09 16.09 Ю 3
{5}
10 км 1/1 600 м
[Cu hum]
+25.0 +15.1 54 +28 +36 жарко 1018.2 1017.6
12 16.09 ЮЗ 4
{6}
10 км 4/1 900 м
[Cu hum Ci fib]
+26.0 +16.3 55 +29 +36 душно 1016.3 1015.8
15 16.09 З 3
{5}
10 км 5/1 900 м
[Cu hum Ci fib]
+25.0 +15.9 57 +28 +29 жарко 1014.7 1014.2
18 16.09 З 1
{3}
10 км 4/0
[Ci fib]
+23.0 +17.2 70 +28 +28 душно 1014.6 1014.0 +26.0
03 17.09 штиль 0
{3}
10 км 1/0
[Ci fib]
+16.6 +13.4 81 +16 +16 1014.3 1013.6
06 17.09 штиль 0
{3}
10 км 3/1 600 м
[Cu hum Ci fib]
+18.4 +15.4 83 +19 +22 1014.7 1014.0 +16.0 255
09 17.09 штиль 0
{5}
10 км ясно +25.8 +17.2 59 +30 +45 душно 1014.7 1014.2
12 17.09 ЮЗ 4
{6}
10 км 1/1 600 м
[Cu hum]
+27.0 +19.3 63 +33 +39 очень
душно
1013.8 1013.3
15 17.09 штиль 0
{5}
10 км 3/0
[Ci fib]
+26.8 +17.7 57 +31 +33 душно 1013.0 1012.5
18 17.09 штиль 0
{3}
10 км ясно +22.8 +18.4 76 +28 +28 душно 1013.1 1012.5 +27.2
03 18.09 СВ 2
{3}
10 км ясно +17.0 +15.3 90 +18 +18 1012.6 1011.9
06 18.09 СВ 2
{3}
10 км 1/1 100 м
[St]
+19.4 +16.4 83 +22 +24 комфорт 1013.1 1012.5 +16.8 250
09 18.09 Ю 4
{5}
10 км ясно +27.4 +19.4 62 +33 +41 очень
душно
1013.4 1012.9
12 18.09 ЮЗ 3
{5}
10 км 1/1 600 м
[Cu hum]
+28.2 +17.9 54 +33 +40 очень
душно
1012.7 1012.2
15 18.09 З 3
{5}
10 км 1/1 600 м
[Cu med, cong]
+26.8 +20.8 70 +34 +35 очень
душно
1012.7 1012.2
18 18.09 СВ 3
{5}
10 км 4/1 900 м
[Cu hum Ac und]
+23.2 +20.1 83 +30 +30 очень
душно
1013.8 1013.3 +28.8

 

Местоположение метеостанции Хрисополи (Греция): широта 40.98 долгота 24.60 высота над уровнем моря 5 м.

В архиве по умолчанию представлена погода в Хрисополи за последнюю неделю. Архивные данные за месяц целиком и за предыдущие месяцы, начиная с января 2011 года, Вы можете получить, выбрав интересующий диапазон дат из раскрывающегося списка и нажав кнопку "Ввод!".


*Определитесь, кто Вы:
робот инопланетянин человек

Внимание! Время в таблицах - всемирное. Для получения местного времени необходимо прибавить поправку, которая равна 2 ч.

Смотрите также архив погоды в соседних городах и на ближайших метеорологических станциях:

Погода в Доксато (Греция) (31 км)
Погода в Серре (Греция) (87 км)
Погода в Кырджали (Болгария) (98 км)
Погода в Александруполисе (Греция) (112 км)
Погода в Сандански (Болгария) (126 км)
Погода на Лемносе (Греция) (129 км)
Погода в Аэропорту Гёкчеада (Турция) (139 км)
Погода в Гёкчеаде (Турция) (141 км)
Погода в Салониках (Греция) (147 км)
Погода на Мусале (Болгария) (158 км)

Пояснения к столбцам:

Ветер - указаны скорость ветра в м/с - средняя за 10 мин, порывы в срок и между сроками (в фигурных скобках) и направление, откуда дует ветер: С - северный, СВ - северо-восточный, В - восточный, ЮВ - юго-восточный, Ю - южный, ЮЗ - юго-западный, З - западный, СЗ - северо-западный.
Видимость - горизонтальная дальность видимости в метрах или километрах. При видимости от 1 до 10 км при отсутствии осадков обычно наблюдается дымка, при ухудшении видимости до 1 км и менее - туман. В сухую погоду видимость может ухудшаться дымом, пылью или мглою.
Явления - указаны атмосферные явления, наблюдавшиеся в срок или в последний час перед сроком; фигурными скобками обозначены явления, наблюдавшиеся между сроками (за 1-3 часа до срока); квадратными скобками обозначены град или гололедные отложения с указанием их диаметра в мм.
Облачность - указаны через наклонную черту общая и нижняя облачность в баллах и высота нижней границы облаков в метрах; квадратными скобками обозначены формы облаков: Ci - перистые, Cs - перисто-слоистые, Cc - перисто-кучевые, Ac - высококучевые, As - высокослоистые, Sc - слоисто-кучевые, Ns - слоисто-дождевые, Cu - кучевые, Cb - кучево-дождевые. Подробнее классификацию облаков см. в Атласе облаков (PDF).
T - Температура воздуха - температура, измеренная на высоте 2 м над землей.
Td - Температура точки росы - температура, при понижении до которой содержащийся в воздухе водяной пар достигнет насыщения.
f - Относительная влажность воздуха - влажноcть воздуха, измеренная на высоте 2 м над землей.
Te - Эффективная температура - температура, которую ощущает одетый по сезону человек в тени. Характеристика душности погоды. При расчете учитывается влияние влажности воздуха и скорости ветра на теплоощущения человека.
Tes - Эффективная температура на солнце - температура, которую ощущает человек, с поправкой на солнечный нагрев. Характеристика знойности погоды. Зависит от высоты солнца над горизонтом, облачности и скорости ветра. Ночью, в пасмурную погоду, а также при ветре 12 м/с и более поправка равна нулю.
P - Атмосферное давление - приведенное к уровню моря атмосферное давление.
Po - Атмосферное давление - измеренное на уровне метеостанции атмосферное давление.
Tmin - Минимальная температура - минимум температуры воздуха на высоте 2 м над землей.
Tmax - Максимальная температура - максимум температуры воздуха на высоте 2 м над землей.
R - Количество осадков - Количество выпавших осадков за период времени, мм. При наведении курсора мыши на число - период времени, за который выпало указанное количество осадков.
R24 - Количество осадков - Количество выпавших осадков за 24 часа, мм.
S - Снежный покров - Высота снежного покрова, см. При наведении курсора мыши на число - состояние снежного покрова и степень покрытия местности в баллах.